Location: Unspecified
(35.7250°N, 0.0000°E)
Time: 13:29:56
(UTC+00:00)

Transit 2A Rocket - All Passes

Search period start: 24 June 2019 00:00
Search period end: 04 July 2019 00:00
Orbit: 586 x 917 km, 66.7° (Epoch: 23 June)

Date Brightness Start Highest point End Pass type
(mag) Time Alt. Az. Time Alt. Az. Time Alt. Az.
24 Jun - 09:02:25 10° SSW 09:08:29 70° ESE 09:14:29 10° NNE daylight
24 Jun - 10:47:15 10° W 10:51:37 20° NW 10:55:55 10° N daylight
24 Jun - 17:50:45 10° N 17:55:02 26° NE 17:59:00 10° ESE daylight
24 Jun - 19:33:14 10° NW 19:37:36 31° WSW 19:41:37 10° S daylight
25 Jun - 08:20:26 10° S 08:26:05 41° ESE 08:31:40 10° NE daylight
25 Jun - 10:03:25 10° WSW 10:08:47 31° NW 10:14:04 10° N daylight
25 Jun - 17:09:05 10° N 17:12:09 16° NE 17:15:04 10° E daylight
25 Jun - 18:50:19 10° NW 18:55:17 62° WSW 18:59:47 10° SSE daylight
26 Jun - 07:39:05 10° SSE 07:43:47 24° ESE 07:48:28 10° NE daylight
26 Jun - 09:20:09 10° SW 09:26:05 51° WNW 09:31:55 10° NNE daylight
26 Jun - 18:07:45 10° NNW 18:12:49 69° ENE 18:17:23 10° SE daylight
27 Jun - 06:58:58 10° SE 07:01:36 13° ESE 07:04:14 10° ENE daylight
27 Jun - 08:37:22 10° SSW 08:43:31 84° WNW 08:49:32 10° NNE daylight
27 Jun - 10:23:39 10° W 10:26:57 15° NW 10:30:11 10° NNW daylight
27 Jun - 17:25:29 10° NNW 17:30:11 37° NE 17:34:30 10° SE daylight
27 Jun - 19:08:50 10° WNW 19:12:23 20° WSW 19:15:44 10° SSW daylight
28 Jun - 07:55:04 10° S 08:01:02 58° ESE 08:06:55 10° NE daylight
28 Jun - 09:39:15 10° WSW 09:44:01 23° NW 09:48:41 10° N daylight
28 Jun - 16:43:30 10° N 16:47:25 22° NE 16:51:02 10° E daylight
28 Jun - 18:25:34 10° NW 18:30:10 39° WSW 18:34:22 10° S daylight
29 Jun - 07:13:17 10° S 07:18:41 34° ESE 07:24:00 10° NE daylight
29 Jun - 08:55:38 10° WSW 09:01:14 37° NW 09:06:43 10° N daylight
29 Jun - 16:02:10 10° NNE 16:04:28 13° NE 16:06:42 10° ENE daylight
29 Jun - 17:42:47 10° NNW 17:47:48 77° WSW 17:52:20 10° SSE daylight
30 Jun - 06:32:13 10° SSE 06:36:25 20° ESE 06:40:34 10° ENE daylight
30 Jun - 08:12:32 10° SW 08:18:35 61° WNW 08:24:29 10° NNE daylight
30 Jun - 10:01:05 10° NW 10:02:20 11° NW 10:03:34 10° NNW daylight
30 Jun - 17:00:20 10° NNW 17:05:17 55° ENE 17:09:46 10° SE daylight
30 Jun - 18:45:04 10° WNW 18:47:08 13° WSW 18:49:08 10° SW daylight
01 Jul - 05:53:35 10° ESE 05:54:15 10° ESE 05:54:56 10° E daylight
01 Jul - 07:29:55 10° SSW 07:36:02 82° ESE 07:42:02 10° NNE daylight
01 Jul - 09:15:26 10° W 09:19:18 17° NW 09:23:06 10° N daylight
01 Jul - 16:18:09 10° N 16:22:35 30° NE 16:26:41 10° ESE daylight
01 Jul - 18:01:01 10° NW 18:04:58 25° WSW 18:08:40 10° SSW daylight
02 Jul - 06:47:47 10° S 06:53:36 48° ESE 06:59:20 10° NE daylight
02 Jul - 08:31:21 10° WSW 08:36:26 27° NW 08:41:24 10° N daylight
02 Jul - 15:36:20 10° N 15:39:45 18° NE 15:42:59 10° E daylight
02 Jul - 17:17:57 10° NW 17:22:42 49° WSW 17:27:03 10° S daylight
03 Jul - 06:06:11 10° SSE 06:11:16 28° ESE 06:16:16 10° NE daylight
03 Jul - 07:47:55 10° SW 07:53:42 43° WNW 07:59:20 10° NNE daylight
03 Jul - 14:55:42 10° NNE 14:56:46 11° NE 14:57:51 10° NE daylight
03 Jul - 16:35:18 10° NNW 16:40:17 85° ENE 16:44:49 10° SSE daylight
